Regional Weather Roundup
Issued by NWS

Home | Current Version | Previous Version | Text Only | Print | Product List | Glossary Off
Versions: 1 2 3 4 5 6 7 8 9 10 11 12 13 14 15 16 17 18 19 20 21 22 23 24 25 26 27 28 29 30 31 32 33 34 35 36 37 38 39 40 41 42 43 44 45 46 47 48 49 50

536
ASUS44 KLIX 252005
RWRLA
LOUISIANA WEATHER ROUNDUP
NATIONAL WEATHER SERVICE NEW ORLEANS LA
200 PM CST TUE NOV 25 2014

NOTE: "FAIR" INDICATES FEW OR NO CLOUDS BELOW 12,000 FEET WITH NO
      SIGNIFICANT WEATHER AND/OR OBSTRUCTIONS TO VISIBILITY.
      SKY/WX - SKY CONDITION AND SIGNIFICANT WEATHER.
      TMP - AIR TEMPERATURE.    DP   - DEWPOINT TEMPERATURE.
      RH  - RELATIVE HUMIDITY.  PRES - PRESSURE.
      HX  - HEAT INDEX.         WCI  - WIND CHILL INDEX.

*  THESE STATIONS ARE NOT NWS OR FAA STATIONS AND ARE NOT UNDER
   NWS QUALITY CONTROL.

LAZ040-048-061>063-065-066-069-252100-
SOUTHEAST LOUISIANA

CITY           SKY/WX    TMP DP  RH WIND       PRES   REMARKS
N.O. AUDUBON     N/A     56   0  10 MISG        N/A
N.O. INTL ARPT CLOUDY    56  29  35 NW12      30.14R
N.O. LAKEFRONT CLOUDY    56  37  49 NW18      30.13F
N.O. DOWNTOWN* CLOUDY    55  30  38 NW12G18   30.13R
SLIDELL        CLOUDY    55  35  47 NW7       30.10F
BATON ROUGE    CLOUDY    55  28  35 NW3       30.15F
BOOTHVILLE     CLOUDY    58  37  45 N15G21    30.11R
BELLE CHASSE   CLOUDY    57  29  34 N12G20    30.13R
BOGALUSA*        N/A     55  34  44 N8        30.13F
NEW ROADS*     CLOUDY    53  32  43 NW7       30.17F
GONZALES*      MOCLDY    56  30  37 NW9       30.15R
HAMMOND*       CLOUDY    55  28  35 NW9       30.14F
HOUMA*         NOT AVBL
PORT FOURCHON* CLOUDY    57  36  44 N14       30.16R

$$

LAZ041-044-053-054-252100-
SOUTHWEST LOUISIANA

CITY           SKY/WX    TMP DP  RH WIND       PRES   REMARKS
LAKE CHARLES   CLOUDY    56  33  42 N8        30.21F
LAFAYETTE      CLOUDY    55  31  39 N12       30.18S
PATTERSON      CLOUDY    54  34  47 N12       30.17F
SALT POINT       N/A     60  32  34 VRB7      30.16S
NEW IBERIA     CLOUDY    56  32  40 N9        30.18F
CHENAULT AIRPK NOT AVBL

$$

LAZ027-028-252100-
CENTRAL LOUISIANA

CITY           SKY/WX    TMP DP  RH WIND       PRES   REMARKS
FORT POLK      PTSUNNY   57  28  32 N8        30.20F
ALEXANDRIA INT CLOUDY    54  33  45 N9        30.19F
ALEXANDRIA     CLOUDY    53  34  48 VRB6      30.21F

$$

LAZ001-002-252100-
NORTHWEST LOUISIANA

CITY           SKY/WX    TMP DP  RH WIND       PRES   REMARKS
SHREVEPORT     MOSUNNY   59  24  26 VRB6      30.20F
BARKSDALE AFB  MOSUNNY   59  23  25 VRB3      30.20F
DTN SHREVEPORT SUNNY     57  22  25 CALM      30.20F

$$

LAZ014-016-252100-
NORTHEAST LOUISIANA

CITY           SKY/WX    TMP DP  RH WIND       PRES   REMARKS
MONROE         PTSUNNY   54  26  34 VRB3      30.22F
TALLULAH       CLOUDY    52  25  35 N8        30.20F

$$




USA.gov is the U.S. government's official web portal to all federal, state and local government web resources and services.